Showing default

GALAXY 28 (IA 8), 28702

Orbit data source: Space-Track

GALAXY 28 (IA 8), 28702 is a payload satellite owned by Intelsat Ltd (US) (US) in GEO that was launched on Thu, 23 Jun 2005 UTC via a ZENIT-3SL launch vehicle from the Sea Launch (SEAL). Payload-class satellites include a variety of spacecraft equipped with specific instruments for various scientific and technological missions. These include communications satellites like Starlink; space stations such as the ISS; scientific satellites like the Hubble; Earth observation satellites from companies like Planet Labs, Umbra, and HawkEye 360; GPS; miniature CubeSats for education and research; and military/defense satellites.

Loading next visibility...
Identifier
28702, 2005-022A
Orbit
GEO
Country
Flag of UnknownUnknown / ITSO
Related business
Manufacturer
SS/Loral
Mission
Operational Commercial Communications
Bus & Motor
SSL-1300, R-4D-11-164
Mass
5,493 kg wet, ~3,000 kg dry
Launch date (UTC)
2005-06-23 (20 years ago)
Launch vehicle
ZENIT-3SL
Launch site
Sea Launch (SEAL)
Object type
Payload
Rocket body
Debris
Shape & HBR
Box + 2 Pan, 13.5 m
Radar Cross Section
38.593 m², Large (>1 m²)

Expand to show TLE details & history
Last TLE update: 13 hours ago

TLE from 13 hours ago
0 GALAXY 28 (IA 8)
1 28702U 05022A   25342.62057100 -.00000186  00000-0  00000+0 0  9990
2 28702   2.8081  81.3297 0002667 178.1657 312.8506  1.00271292 50066
Epoch: 2025-12-08T14:53Z
TLE epoch observation values (Epoch: 2025-12-08T14:53:37.334Z)
Latitude
2.10545°
Longitude
-88.66513°
Altitude
35,778.299 km
Speed
3.075 km/s
True Right ascension
14h 09m 25s
True Declination
2° 06' 12"
Sunlit
Object was in daylight at epoch
Visualization orbit readout
Latitude
Unknown
Longitude
Unknown
Altitude
Unknown
Speed
Unknown
Apparent Right ascension
Unknown
Apparent Declination
Unknown
Sunlit
N/A
Visualization observer readout
Local Sidereal Time
02:11:13
Azimuth
Unknown
Elevation
Unknown
Doppler factor
Unknown
Orbital elements
Apogee altitude
35,799.045 km
Perigee altitude
35,776.554 km
Semi-major axis
42,165.937 km
Eccentricity
0.00027
Inclination
2.8081°
RAAN
81.3297°
Arg. of periapsis
178.1657°
True anomaly
312.82819°
Mean anomaly
312.8506°
Eccentric anomaly
312.8394°
Mean motion
0.25067 °/min
Orbital period
1,436.16 mins
BSTAR
0
Loading maneuver chart data...
Computing Atmospheric mass density...
Loading historical data...
Loading historical data...
Loading historical data...
Loading historical data...
Loading historical data...
Loading historical data...
Loading historical data...
Other satellites on launch #22 in the year 2005 (2005-06-23 UTC)

Documentation

Showing up to 5 results
|